Time,TemperatureF,DewpointF,PressureIn,WindDirection,WindDirectionDegrees,WindSpeedMPH,WindSpeedGustMPH,Humidity,HourlyPrecipIn,Conditions,Clouds,dailyrainin,SoftwareType,DateUTC
2013-02-06 00:00:00,20.3,1.2,18.26,ESE,115,0.0,0.0,43,0.00,,,0.00,WUHU216WMR968SP,2013-02-06 05:00:00,
2013-02-06 00:05:00,20.5,0.9,18.26,ESE,115,0.0,0.0,42,0.00,,,0.00,WUHU216WMR968SP,2013-02-06 05:05:00,
2013-02-06 00:10:00,20.7,1.0,18.26,ESE,115,0.0,0.0,42,0.00,,,0.00,WUHU216WMR968SP,2013-02-06 05:10:00,
2013-02-06 00:15:00,20.8,0.6,18.26,ESE,115,0.0,0.0,41,0.00,,,0.00,WUHU216WMR968SP,2013-02-06 05:15:00,
2013-02-06 00:20:00,20.8,0.1,18.26,ESE,115,0.0,0.0,40,0.00,,,0.00,WUHU216WMR968SP,2013-02-06 05:20:00,
2013-02-06 00:25:00,20.8,-0.5,18.26,ESE,115,0.0,0.0,39,0.00,,,0.00,WUHU216WMR968SP,2013-02-06 05:25:00,
2013-02-06 00:30:00,21.0,-0.3,18.26,ESE,115,0.0,0.0,39,0.00,,,0.00,WUHU216WMR968SP,2013-02-06 05:30:00,
2013-02-06 00:35:00,21.0,-0.3,18.26,ESE,115,0.0,0.0,39,0.00,,,0.00,WUHU216WMR968SP,2013-02-06 05:35:00,
2013-02-06 00:40:00,21.2,0.4,18.26,ESE,115,0.0,0.0,40,0.00,,,0.00,WUHU216WMR968SP,2013-02-06 05:40:00,
2013-02-06 00:45:00,21.0,1.3,18.26,ESE,115,0.0,0.0,42,0.00,,,0.00,WUHU216WMR968SP,2013-02-06 05:45:00,
2013-02-06 00:50:00,21.2,1.5,18.26,ESE,115,0.0,0.0,42,0.00,,,0.00,WUHU216WMR968SP,2013-02-06 05:50:00,
2013-02-06 00:55:00,21.2,2.0,18.26,ESE,115,0.0,0.0,43,0.00,,,0.00,WUHU216WMR968SP,2013-02-06 05:55:00,
2013-02-06 01:00:00,21.0,1.8,18.26,East,81,0.0,0.0,43,0.00,,,0.00,WUHU216WMR968SP,2013-02-06 06:00:00,
2013-02-06 01:05:00,21.2,1.5,18.26,East,81,0.0,0.0,42,0.00,,,0.00,WUHU216WMR968SP,2013-02-06 06:05:00,
2013-02-06 01:10:00,21.2,2.0,18.26,East,81,0.0,0.0,43,0.00,,,0.00,WUHU216WMR968SP,2013-02-06 06:10:00,
2013-02-06 01:15:00,21.2,2.0,18.26,East,81,0.0,0.0,43,0.00,,,0.00,WUHU216WMR968SP,2013-02-06 06:15:00,
2013-02-06 01:20:00,21.2,2.0,18.26,East,81,0.0,0.0,43,0.00,,,0.00,WUHU216WMR968SP,2013-02-06 06:20:00,
2013-02-06 01:25:00,21.2,2.0,18.26,East,81,0.0,0.0,43,0.00,,,0.00,WUHU216WMR968SP,2013-02-06 06:25:00,
2013-02-06 01:30:00,21.4,1.7,18.26,East,81,0.0,0.0,42,0.00,,,0.00,WUHU216WMR968SP,2013-02-06 06:30:00,
2013-02-06 01:35:00,21.4,1.7,18.26,East,81,0.0,0.0,42,0.00,,,0.00,WUHU216WMR968SP,2013-02-06 06:35:00,
2013-02-06 01:40:00,21.6,1.9,18.26,East,81,0.0,0.0,42,0.00,,,0.00,WUHU216WMR968SP,2013-02-06 06:40:00,
2013-02-06 01:45:00,21.4,1.7,18.26,East,82,0.0,0.0,42,0.00,,,0.00,WUHU216WMR968SP,2013-02-06 06:45:00,
2013-02-06 01:50:00,21.4,1.7,18.26,East,82,0.0,0.0,42,0.00,,,0.00,WUHU216WMR968SP,2013-02-06 06:50:00,
2013-02-06 01:55:00,21.4,1.1,18.26,East,82,0.0,0.0,41,0.00,,,0.00,WUHU216WMR968SP,2013-02-06 06:55:00,
2013-02-06 02:00:00,21.4,1.7,18.26,East,82,0.0,0.0,42,0.00,,,0.00,WUHU216WMR968SP,2013-02-06 07:00:00,
2013-02-06 02:05:00,21.4,1.7,18.26,East,81,0.0,0.0,42,0.00,,,0.00,WUHU216WMR968SP,2013-02-06 07:05:00,
2013-02-06 02:10:00,21.4,1.7,18.26,East,81,0.0,0.0,42,0.00,,,0.00,WUHU216WMR968SP,2013-02-06 07:10:00,
2013-02-06 02:15:00,21.4,1.7,18.26,East,81,0.0,0.0,42,0.00,,,0.00,WUHU216WMR968SP,2013-02-06 07:15:00,
2013-02-06 02:20:00,21.4,2.2,18.26,East,82,0.0,0.0,43,0.00,,,0.00,WUHU216WMR968SP,2013-02-06 07:20:00,
2013-02-06 02:25:00,21.4,2.2,18.26,East,82,0.0,0.0,43,0.00,,,0.00,WUHU216WMR968SP,2013-02-06 07:25:00,
2013-02-06 02:30:00,21.4,2.2,18.26,East,82,0.0,0.0,43,0.00,,,0.00,WUHU216WMR968SP,2013-02-06 07:30:00,
2013-02-06 02:35:00,21.2,2.0,18.26,East,82,0.0,0.0,43,0.00,,,0.00,WUHU216WMR968SP,2013-02-06 07:35:00,
2013-02-06 02:40:00,21.2,2.5,18.26,East,82,0.0,0.0,44,0.00,,,0.00,WUHU216WMR968SP,2013-02-06 07:40:00,
2013-02-06 02:45:00,21.4,2.7,18.26,East,82,0.0,0.0,44,0.00,,,0.00,WUHU216WMR968SP,2013-02-06 07:45:00,
2013-02-06 02:50:00,21.4,2.7,18.26,East,82,0.0,0.0,44,0.00,,,0.00,WUHU216WMR968SP,2013-02-06 07:50:00,
2013-02-06 02:55:00,21.4,3.2,18.26,East,82,0.0,0.0,45,0.00,,,0.00,WUHU216WMR968SP,2013-02-06 07:55:00,
2013-02-06 03:00:00,21.4,3.2,18.26,East,82,0.0,0.0,45,0.00,,,0.00,WUHU216WMR968SP,2013-02-06 08:00:00,
2013-02-06 03:05:00,21.4,3.2,18.26,East,82,0.0,0.0,45,0.00,,,0.00,WUHU216WMR968SP,2013-02-06 08:05:00,
2013-02-06 03:10:00,21.6,3.4,18.26,East,82,0.0,0.0,45,0.00,,,0.00,WUHU216WMR968SP,2013-02-06 08:10:00,
2013-02-06 03:15:00,21.6,3.4,18.26,East,81,0.0,0.0,45,0.00,,,0.00,WUHU216WMR968SP,2013-02-06 08:15:00,
2013-02-06 03:20:00,21.6,3.9,18.26,East,81,0.0,0.0,46,0.00,,,0.00,WUHU216WMR968SP,2013-02-06 08:20:00,
2013-02-06 03:25:00,21.6,4.8,18.26,East,81,0.0,0.0,48,0.00,,,0.00,WUHU216WMR968SP,2013-02-06 08:25:00,
2013-02-06 03:30:00,21.4,4.2,18.26,East,81,0.0,0.0,47,0.00,,,0.00,WUHU216WMR968SP,2013-02-06 08:30:00,
2013-02-06 03:35:00,21.4,4.2,18.26,East,81,0.0,0.0,47,0.00,,,0.00,WUHU216WMR968SP,2013-02-06 08:35:00,
2013-02-06 03:40:00,21.2,4.5,18.26,East,82,0.0,0.0,48,0.00,,,0.00,WUHU216WMR968SP,2013-02-06 08:40:00,
2013-02-06 03:45:00,21.0,4.3,18.26,East,82,0.0,0.0,48,0.00,,,0.00,WUHU216WMR968SP,2013-02-06 08:45:00,
2013-02-06 03:50:00,21.0,4.3,18.26,East,82,0.0,0.0,48,0.00,,,0.00,WUHU216WMR968SP,2013-02-06 08:50:00,
2013-02-06 03:55:00,21.0,4.7,18.26,East,82,0.0,0.0,49,0.00,,,0.00,WUHU216WMR968SP,2013-02-06 08:55:00,
2013-02-06 04:00:00,20.7,4.9,18.26,East,82,0.0,0.0,50,0.00,,,0.00,WUHU216WMR968SP,2013-02-06 09:00:00,
2013-02-06 04:06:00,20.8,5.0,18.26,East,82,0.0,0.0,50,0.00,,,0.00,WUHU216WMR968SP,2013-02-06 09:06:00,
2013-02-06 04:11:00,20.8,5.0,18.26,East,82,0.0,0.0,50,0.00,,,0.00,WUHU216WMR968SP,2013-02-06 09:11:00,
2013-02-06 04:16:00,21.0,5.2,18.26,East,82,0.0,0.0,50,0.00,,,0.00,WUHU216WMR968SP,2013-02-06 09:16:00,
2013-02-06 04:21:00,20.8,5.0,18.26,East,82,0.0,0.0,50,0.00,,,0.00,WUHU216WMR968SP,2013-02-06 09:21:00,
2013-02-06 04:26:00,20.8,5.0,18.26,East,82,0.0,0.0,50,0.00,,,0.00,WUHU216WMR968SP,2013-02-06 09:26:00,
2013-02-06 04:31:00,20.8,5.0,18.26,East,82,0.0,0.0,50,0.00,,,0.00,WUHU216WMR968SP,2013-02-06 09:31:00,
2013-02-06 04:36:00,20.8,4.6,18.26,East,82,0.0,0.0,49,0.00,,,0.00,WUHU216WMR968SP,2013-02-06 09:36:00,
2013-02-06 04:41:00,20.8,4.6,18.26,East,82,0.0,0.0,49,0.00,,,0.00,WUHU216WMR968SP,2013-02-06 09:41:00,
2013-02-06 04:46:00,20.8,5.0,18.26,East,82,0.0,0.0,50,0.00,,,0.00,WUHU216WMR968SP,2013-02-06 09:46:00,
2013-02-06 04:51:00,20.8,4.6,18.26,East,82,0.0,0.0,49,0.00,,,0.00,WUHU216WMR968SP,2013-02-06 09:51:00,
2013-02-06 04:56:00,20.7,4.9,18.26,East,82,0.0,0.0,50,0.00,,,0.00,WUHU216WMR968SP,2013-02-06 09:56:00,
2013-02-06 05:01:00,20.8,5.9,18.26,East,82,0.0,0.0,52,0.00,,,0.00,WUHU216WMR968SP,2013-02-06 10:01:00,
2013-02-06 05:06:00,20.8,5.9,18.26,East,82,0.0,0.0,52,0.00,,,0.00,WUHU216WMR968SP,2013-02-06 10:06:00,
2013-02-06 05:11:00,20.7,5.4,18.26,East,82,0.0,0.0,51,0.00,,,0.00,WUHU216WMR968SP,2013-02-06 10:11:00,
2013-02-06 05:16:00,20.8,5.5,18.26,East,82,0.0,0.0,51,0.00,,,0.00,WUHU216WMR968SP,2013-02-06 10:16:00,
2013-02-06 05:21:00,20.8,5.5,18.26,East,82,0.0,0.0,51,0.00,,,0.00,WUHU216WMR968SP,2013-02-06 10:21:00,
2013-02-06 05:26:00,20.8,5.5,18.26,East,82,0.0,0.0,51,0.00,,,0.00,WUHU216WMR968SP,2013-02-06 10:26:00,
2013-02-06 05:31:00,20.8,5.5,18.26,East,82,0.0,0.0,51,0.00,,,0.00,WUHU216WMR968SP,2013-02-06 10:31:00,
2013-02-06 05:36:00,20.8,5.5,18.26,East,82,0.0,0.0,51,0.00,,,0.00,WUHU216WMR968SP,2013-02-06 10:36:00,
2013-02-06 05:41:00,20.7,5.8,18.26,East,82,0.0,0.0,52,0.00,,,0.00,WUHU216WMR968SP,2013-02-06 10:41:00,
2013-02-06 05:46:00,20.7,5.8,18.26,East,82,0.0,0.0,52,0.00,,,0.00,WUHU216WMR968SP,2013-02-06 10:46:00,
2013-02-06 05:51:00,20.5,5.6,18.26,East,82,0.0,0.0,52,0.00,,,0.00,WUHU216WMR968SP,2013-02-06 10:51:00,
2013-02-06 05:56:00,20.5,5.6,18.26,East,82,0.0,0.0,52,0.00,,,0.00,WUHU216WMR968SP,2013-02-06 10:56:00,
2013-02-06 06:01:00,20.7,5.8,18.26,East,82,0.0,0.0,52,0.00,,,0.00,WUHU216WMR968SP,2013-02-06 11:01:00,
2013-02-06 06:07:00,20.3,5.9,18.26,East,82,0.0,0.0,53,0.00,,,0.00,WUHU216WMR968SP,2013-02-06 11:07:00,
2013-02-06 06:12:00,20.3,5.9,18.26,East,82,0.0,0.0,53,0.00,,,0.00,WUHU216WMR968SP,2013-02-06 11:12:00,
2013-02-06 06:17:00,19.9,5.5,18.26,East,82,0.0,0.0,53,0.00,,,0.00,WUHU216WMR968SP,2013-02-06 11:17:00,
2013-02-06 06:22:00,19.8,5.8,18.26,East,82,0.0,0.0,54,0.00,,,0.00,WUHU216WMR968SP,2013-02-06 11:22:00,
2013-02-06 06:27:00,19.4,5.8,18.26,East,82,0.0,0.0,55,0.00,,,0.00,WUHU216WMR968SP,2013-02-06 11:27:00,
2013-02-06 06:32:00,19.2,5.7,18.26,East,82,0.0,0.0,55,0.00,,,0.00,WUHU216WMR968SP,2013-02-06 11:32:00,
2013-02-06 06:37:00,19.2,6.1,18.26,East,82,0.0,0.0,56,0.00,,,0.00,WUHU216WMR968SP,2013-02-06 11:37:00,
2013-02-06 06:42:00,19.0,6.3,18.26,East,82,0.0,0.0,57,0.00,,,0.00,WUHU216WMR968SP,2013-02-06 11:42:00,
2013-02-06 06:47:00,19.2,6.5,18.26,East,82,0.0,0.0,57,0.00,,,0.00,WUHU216WMR968SP,2013-02-06 11:47:00,
2013-02-06 06:52:00,19.0,6.3,18.26,East,82,0.0,0.0,57,0.00,,,0.00,WUHU216WMR968SP,2013-02-06 11:52:00,
2013-02-06 06:57:00,19.0,6.3,18.26,East,82,0.0,0.0,57,0.00,,,0.00,WUHU216WMR968SP,2013-02-06 11:57:00,
2013-02-06 07:04:00,19.2,6.9,18.26,East,82,0.0,0.0,58,0.00,,,0.00,WUHU216WMR968SP,2013-02-06 12:04:00,
2013-02-06 07:09:00,19.2,6.9,18.26,East,82,0.0,0.0,58,0.00,,,0.00,WUHU216WMR968SP,2013-02-06 12:09:00,
2013-02-06 07:14:00,19.6,7.2,18.26,East,82,0.0,0.0,58,0.00,,,0.00,WUHU216WMR968SP,2013-02-06 12:14:00,
2013-02-06 07:19:00,19.6,7.2,18.26,East,82,0.0,0.0,58,0.00,,,0.00,WUHU216WMR968SP,2013-02-06 12:19:00,
2013-02-06 07:25:00,19.8,7.0,18.26,East,82,0.0,0.0,57,0.00,,,0.00,WUHU216WMR968SP,2013-02-06 12:25:00,
2013-02-06 07:30:00,19.9,7.1,18.26,East,82,0.0,0.0,57,0.00,,,0.00,WUHU216WMR968SP,2013-02-06 12:30:00,
2013-02-06 07:35:00,20.1,7.3,18.26,East,82,0.0,0.0,57,0.00,,,0.00,WUHU216WMR968SP,2013-02-06 12:35:00,
2013-02-06 07:40:00,20.5,7.7,18.26,East,82,0.0,0.0,57,0.00,,,0.00,WUHU216WMR968SP,2013-02-06 12:40:00,
2013-02-06 07:45:00,20.5,7.3,18.26,East,82,0.0,0.0,56,0.00,,,0.00,WUHU216WMR968SP,2013-02-06 12:45:00,
2013-02-06 07:50:00,20.7,7.1,18.26,East,82,0.0,0.0,55,0.00,,,0.00,WUHU216WMR968SP,2013-02-06 12:50:00,
2013-02-06 07:55:00,20.7,7.1,18.26,East,82,0.0,0.0,55,0.00,,,0.00,WUHU216WMR968SP,2013-02-06 12:55:00,
2013-02-06 08:00:00,20.8,6.7,18.26,East,82,0.0,0.0,54,0.00,,,0.00,WUHU216WMR968SP,2013-02-06 13:00:00,
2013-02-06 08:05:00,21.0,6.9,18.26,East,82,0.0,0.0,54,0.00,,,0.00,WUHU216WMR968SP,2013-02-06 13:05:00,
2013-02-06 08:10:00,21.2,7.1,18.26,East,82,0.0,0.0,54,0.00,,,0.00,WUHU216WMR968SP,2013-02-06 13:10:00,
2013-02-06 08:15:00,21.6,7.1,18.26,East,82,0.0,0.0,53,0.00,,,0.00,WUHU216WMR968SP,2013-02-06 13:15:00,
2013-02-06 08:20:00,21.9,7.3,18.26,East,82,0.0,0.0,53,0.00,,,0.00,WUHU216WMR968SP,2013-02-06 13:20:00,
2013-02-06 08:25:00,21.9,6.9,18.26,East,82,0.0,0.0,52,0.00,,,0.00,WUHU216WMR968SP,2013-02-06 13:25:00,
2013-02-06 08:30:00,21.9,6.9,18.26,East,82,0.0,0.0,52,0.00,,,0.00,WUHU216WMR968SP,2013-02-06 13:30:00,
2013-02-06 08:35:00,22.3,6.8,18.26,East,82,0.0,0.0,51,0.00,,,0.00,WUHU216WMR968SP,2013-02-06 13:35:00,
2013-02-06 08:40:00,22.5,6.6,18.26,East,82,0.0,0.0,50,0.00,,,0.00,WUHU216WMR968SP,2013-02-06 13:40:00,
2013-02-06 08:45:00,22.6,6.2,18.26,East,82,0.0,0.0,49,0.00,,,0.00,WUHU216WMR968SP,2013-02-06 13:45:00,
2013-02-06 08:50:00,22.8,6.9,18.26,East,82,0.0,0.0,50,0.00,,,0.00,WUHU216WMR968SP,2013-02-06 13:50:00,
2013-02-06 08:55:00,23.4,6.5,18.26,East,82,0.0,0.0,48,0.00,,,0.00,WUHU216WMR968SP,2013-02-06 13:55:00,
2013-02-06 09:00:00,23.5,6.1,18.26,East,82,0.0,0.0,47,0.00,,,0.00,WUHU216WMR968SP,2013-02-06 14:00:00,
2013-02-06 09:05:00,24.1,6.7,18.26,East,82,0.0,0.0,47,0.00,,,0.00,WUHU216WMR968SP,2013-02-06 14:05:00,
2013-02-06 09:10:00,24.6,6.6,18.26,East,82,0.0,0.0,46,0.00,,,0.00,WUHU216WMR968SP,2013-02-06 14:10:00,
2013-02-06 09:15:00,25.2,6.7,18.26,East,82,0.0,0.0,45,0.00,,,0.00,WUHU216WMR968SP,2013-02-06 14:15:00,
2013-02-06 09:20:00,26.1,7.0,18.26,East,82,0.0,0.0,44,0.00,,,0.00,WUHU216WMR968SP,2013-02-06 14:20:00,
2013-02-06 09:25:00,26.6,7.5,18.26,SE,136,0.0,0.0,44,0.00,,,0.00,WUHU216WMR968SP,2013-02-06 14:25:00,
2013-02-06 09:30:00,27.0,6.8,18.26,South,190,0.0,0.0,42,0.00,,,0.00,WUHU216WMR968SP,2013-02-06 14:30:00,
2013-02-06 09:35:00,27.1,6.9,18.26,SE,143,0.0,0.0,42,0.00,,,0.00,WUHU216WMR968SP,2013-02-06 14:35:00,
2013-02-06 09:40:00,27.5,7.2,18.26,SE,143,0.0,0.0,42,0.00,,,0.00,WUHU216WMR968SP,2013-02-06 14:40:00,
2013-02-06 09:45:00,28.2,7.3,18.26,SSE,151,0.0,0.0,41,0.00,,,0.00,WUHU216WMR968SP,2013-02-06 14:45:00,
2013-02-06 09:50:00,28.4,7.5,18.26,WSW,242,0.0,0.0,41,0.00,,,0.00,WUHU216WMR968SP,2013-02-06 14:50:00,
2013-02-06 09:55:00,28.8,7.9,18.26,SE,135,0.0,0.0,41,0.00,,,0.00,WUHU216WMR968SP,2013-02-06 14:55:00,
2013-02-06 10:00:00,29.1,8.1,18.26,SE,145,0.0,0.0,41,0.00,,,0.00,WUHU216WMR968SP,2013-02-06 15:00:00,
2013-02-06 10:05:00,29.5,7.9,18.26,SSE,152,0.0,0.0,40,0.00,,,0.00,WUHU216WMR968SP,2013-02-06 15:05:00,
2013-02-06 10:10:00,29.5,7.9,18.26,SSE,153,0.0,0.0,40,0.00,,,0.00,WUHU216WMR968SP,2013-02-06 15:10:00,
2013-02-06 10:15:00,29.3,8.3,18.26,NW,326,0.0,0.0,41,0.00,,,0.00,WUHU216WMR968SP,2013-02-06 15:15:00,
2013-02-06 10:20:00,30.0,8.9,18.26,WNW,297,0.0,0.0,41,0.00,,,0.00,WUHU216WMR968SP,2013-02-06 15:20:00,
2013-02-06 10:25:00,30.9,9.2,18.26,WSW,257,0.0,0.0,40,0.00,,,0.00,WUHU216WMR968SP,2013-02-06 15:25:00,
2013-02-06 10:30:00,31.5,9.7,18.26,NW,311,0.0,0.0,40,0.00,,,0.00,WUHU216WMR968SP,2013-02-06 15:30:00,
2013-02-06 10:35:00,32.2,10.4,18.26,NNW,328,0.0,0.0,40,0.00,,,0.00,WUHU216WMR968SP,2013-02-06 15:35:00,
2013-02-06 10:40:00,32.5,10.1,18.26,NNW,338,0.0,0.0,39,0.00,,,0.00,WUHU216WMR968SP,2013-02-06 15:40:00,
2013-02-06 10:45:00,33.1,8.8,18.26,WSW,249,0.0,4.0,36,0.00,,,0.00,WUHU216WMR968SP,2013-02-06 15:45:00,
2013-02-06 10:50:00,33.3,8.3,18.26,NW,321,0.0,4.0,35,0.00,,,0.00,WUHU216WMR968SP,2013-02-06 15:50:00,
2013-02-06 10:55:00,33.3,8.3,18.26,WSW,255,0.0,2.2,35,0.00,,,0.00,WUHU216WMR968SP,2013-02-06 15:55:00,
2013-02-06 11:00:00,33.3,8.3,18.26,NW,318,0.0,0.0,35,0.00,,,0.00,WUHU216WMR968SP,2013-02-06 16:00:00,
2013-02-06 11:05:00,34.3,8.6,18.26,WSW,250,0.0,0.0,34,0.00,,,0.00,WUHU216WMR968SP,2013-02-06 16:05:00,
2013-02-06 11:10:00,35.2,8.7,18.26,WNW,300,0.0,0.0,33,0.00,,,0.00,WUHU216WMR968SP,2013-02-06 16:10:00,
2013-02-06 11:15:00,35.6,8.4,18.26,NW,307,0.0,3.6,32,0.00,,,0.00,WUHU216WMR968SP,2013-02-06 16:15:00,
2013-02-06 11:20:00,36.1,8.8,18.26,NW,315,0.0,3.6,32,0.00,,,0.00,WUHU216WMR968SP,2013-02-06 16:20:00,
2013-02-06 11:25:00,36.1,8.1,18.26,WNW,297,0.0,3.1,31,0.00,,,0.00,WUHU216WMR968SP,2013-02-06 16:25:00,
2013-02-06 11:30:00,36.3,8.3,18.26,WNW,302,0.0,3.1,31,0.00,,,0.00,WUHU216WMR968SP,2013-02-06 16:30:00,
2013-02-06 11:35:00,36.3,8.3,18.26,WNW,297,0.0,2.7,31,0.00,,,0.00,WUHU216WMR968SP,2013-02-06 16:35:00,
2013-02-06 11:40:00,36.7,7.9,18.26,WNW,303,0.0,2.2,30,0.00,,,0.00,WUHU216WMR968SP,2013-02-06 16:40:00,
2013-02-06 11:45:00,37.2,8.4,18.26,NNW,332,0.0,0.0,30,0.00,,,0.00,WUHU216WMR968SP,2013-02-06 16:45:00,
2013-02-06 11:50:00,37.0,8.2,18.26,NW,314,0.0,0.0,30,0.00,,,0.00,WUHU216WMR968SP,2013-02-06 16:50:00,
2013-02-06 11:55:00,36.3,7.6,18.26,WNW,292,0.0,0.0,30,0.00,,,0.00,WUHU216WMR968SP,2013-02-06 16:55:00,
2013-02-06 12:00:00,35.4,6.8,18.26,West,271,0.0,0.0,30,0.00,,,0.00,WUHU216WMR968SP,2013-02-06 17:00:00,
2013-02-06 12:05:00,35.4,7.5,18.26,WNW,302,0.0,0.0,31,0.00,,,0.00,WUHU216WMR968SP,2013-02-06 17:05:00,
2013-02-06 12:10:00,35.4,7.5,18.26,NW,307,0.0,0.0,31,0.00,,,0.00,WUHU216WMR968SP,2013-02-06 17:10:00,
2013-02-06 12:15:00,34.9,7.1,18.26,WNW,302,0.0,0.0,31,0.00,,,0.00,WUHU216WMR968SP,2013-02-06 17:15:00,
2013-02-06 12:20:00,34.5,6.7,18.26,NW,325,0.0,2.2,31,0.00,,,0.00,WUHU216WMR968SP,2013-02-06 17:20:00,
2013-02-06 12:25:00,34.5,6.7,18.26,NW,314,0.0,9.2,31,0.00,,,0.00,WUHU216WMR968SP,2013-02-06 17:25:00,
2013-02-06 12:30:00,34.5,6.7,18.26,NW,322,0.0,9.2,31,0.00,,,0.00,WUHU216WMR968SP,2013-02-06 17:30:00,
2013-02-06 12:35:00,34.5,6.7,18.26,WNW,298,0.0,7.6,31,0.00,,,0.00,WUHU216WMR968SP,2013-02-06 17:35:00,
2013-02-06 12:40:00,34.3,6.5,18.26,NW,313,0.0,7.6,31,0.00,,,0.00,WUHU216WMR968SP,2013-02-06 17:40:00,
2013-02-06 12:45:00,34.5,6.7,18.26,WNW,301,0.0,0.0,31,0.00,,,0.00,WUHU216WMR968SP,2013-02-06 17:45:00,
2013-02-06 12:50:00,35.4,7.5,18.26,NW,308,0.0,0.0,31,0.00,,,0.00,WUHU216WMR968SP,2013-02-06 17:50:00,
2013-02-06 12:55:00,35.1,6.5,18.26,NW,308,0.0,0.0,30,0.00,,,0.00,WUHU216WMR968SP,2013-02-06 17:55:00,
2013-02-06 13:00:00,34.9,6.4,18.26,WNW,298,0.0,0.0,30,0.00,,,0.00,WUHU216WMR968SP,2013-02-06 18:00:00,
2013-02-06 13:05:00,34.3,5.8,18.26,NW,323,0.0,15.0,30,0.00,,,0.00,WUHU216WMR968SP,2013-02-06 18:05:00,
2013-02-06 13:10:00,34.2,5.7,18.26,WNW,301,0.0,15.0,30,0.00,,,0.00,WUHU216WMR968SP,2013-02-06 18:10:00,
2013-02-06 13:15:00,34.2,5.7,18.26,NW,317,0.0,8.7,30,0.00,,,0.00,WUHU216WMR968SP,2013-02-06 18:15:00,
2013-02-06 13:20:00,33.8,5.4,18.26,West,279,0.0,0.0,30,0.00,,,0.00,WUHU216WMR968SP,2013-02-06 18:20:00,
2013-02-06 13:25:00,34.2,5.7,18.26,NNW,337,0.0,2.2,30,0.00,,,0.00,WUHU216WMR968SP,2013-02-06 18:25:00,
2013-02-06 13:30:00,34.5,3.8,18.26,NW,323,0.0,2.2,27,0.00,,,0.00,WUHU216WMR968SP,2013-02-06 18:30:00,
2013-02-06 13:35:00,35.1,4.3,18.26,NW,307,0.0,0.0,27,0.00,,,0.00,WUHU216WMR968SP,2013-02-06 18:35:00,
2013-02-06 13:40:00,35.8,4.9,18.26,NW,326,0.0,0.0,27,0.00,,,0.00,WUHU216WMR968SP,2013-02-06 18:40:00,
2013-02-06 13:45:00,35.8,4.9,18.26,WNW,284,0.0,0.0,27,0.00,,,0.00,WUHU216WMR968SP,2013-02-06 18:45:00,
2013-02-06 13:50:00,35.4,4.5,18.26,WNW,298,0.0,0.0,27,0.00,,,0.00,WUHU216WMR968SP,2013-02-06 18:50:00,
2013-02-06 13:55:00,35.6,4.7,18.26,NW,321,0.0,0.0,27,0.00,,,0.00,WUHU216WMR968SP,2013-02-06 18:55:00,
2013-02-06 14:00:00,35.6,4.7,18.26,NW,313,0.0,5.4,27,0.00,,,0.00,WUHU216WMR968SP,2013-02-06 19:00:00,
2013-02-06 14:05:00,34.9,4.1,18.26,West,273,0.0,8.1,27,0.00,,,0.00,WUHU216WMR968SP,2013-02-06 19:05:00,
2013-02-06 14:10:00,34.5,3.8,18.26,NW,326,0.0,8.1,27,0.00,,,0.00,WUHU216WMR968SP,2013-02-06 19:10:00,
2013-02-06 14:15:00,35.1,4.3,18.26,NNW,336,0.0,0.0,27,0.00,,,0.00,WUHU216WMR968SP,2013-02-06 19:15:00,
2013-02-06 14:20:00,35.4,4.5,18.26,NW,317,0.0,0.0,27,0.00,,,0.00,WUHU216WMR968SP,2013-02-06 19:20:00,
2013-02-06 14:25:00,35.2,4.4,18.26,NW,314,0.0,10.5,27,0.00,,,0.00,WUHU216WMR968SP,2013-02-06 19:25:00,
2013-02-06 14:30:00,35.2,4.4,18.26,WNW,292,0.0,10.5,27,0.00,,,0.00,WUHU216WMR968SP,2013-02-06 19:30:00,
2013-02-06 14:35:00,35.1,2.6,18.26,SSW,211,3.6,11.0,25,0.00,,,0.00,WUHU216WMR968SP,2013-02-06 19:35:00,
2013-02-06 14:40:00,35.4,2.9,18.26,NW,315,0.0,11.0,25,0.00,,,0.00,WUHU216WMR968SP,2013-02-06 19:40:00,
2013-02-06 14:45:00,35.4,2.9,18.26,WNW,294,0.0,11.0,25,0.00,,,0.00,WUHU216WMR968SP,2013-02-06 19:45:00,
2013-02-06 14:50:00,35.4,2.9,18.26,WNW,282,0.0,11.0,25,0.00,,,0.00,WUHU216WMR968SP,2013-02-06 19:50:00,
2013-02-06 14:55:00,35.1,2.6,18.26,WSW,252,4.0,11.0,25,0.00,,,0.00,WUHU216WMR968SP,2013-02-06 19:55:00,
2013-02-06 15:00:00,34.9,2.5,18.26,NW,323,0.0,10.5,25,0.00,,,0.00,WUHU216WMR968SP,2013-02-06 20:00:00,
2013-02-06 15:05:00,35.1,2.6,18.26,NW,306,0.0,4.0,25,0.00,,,0.00,WUHU216WMR968SP,2013-02-06 20:05:00,
2013-02-06 15:10:00,34.9,2.5,18.26,NW,307,0.0,0.0,25,0.00,,,0.00,WUHU216WMR968SP,2013-02-06 20:10:00,
2013-02-06 15:15:00,34.9,2.5,18.26,NW,307,0.0,0.0,25,0.00,,,0.00,WUHU216WMR968SP,2013-02-06 20:15:00,
2013-02-06 15:20:00,34.9,2.5,18.26,NNW,330,0.0,0.0,25,0.00,,,0.00,WUHU216WMR968SP,2013-02-06 20:20:00,
2013-02-06 15:25:00,34.9,2.5,18.26,WNW,300,3.6,13.6,25,0.00,,,0.00,WUHU216WMR968SP,2013-02-06 20:25:00,
2013-02-06 15:30:00,34.3,2.0,18.26,NW,310,0.0,13.6,25,0.00,,,0.00,WUHU216WMR968SP,2013-02-06 20:30:00,
2013-02-06 15:35:00,34.0,1.7,18.26,NW,311,0.0,5.4,25,0.00,,,0.00,WUHU216WMR968SP,2013-02-06 20:35:00,
2013-02-06 15:40:00,33.8,1.5,18.26,NW,308,0.0,5.4,25,0.00,,,0.00,WUHU216WMR968SP,2013-02-06 20:40:00,
2013-02-06 15:45:00,34.3,3.6,18.26,WSW,241,0.0,0.0,27,0.00,,,0.00,WUHU216WMR968SP,2013-02-06 20:45:00,
2013-02-06 15:50:00,34.0,3.3,18.26,NNW,330,0.0,3.1,27,0.00,,,0.00,WUHU216WMR968SP,2013-02-06 20:50:00,
2013-02-06 15:55:00,33.6,3.7,18.26,NNW,329,0.0,3.1,28,0.00,,,0.00,WUHU216WMR968SP,2013-02-06 20:55:00,
2013-02-06 16:00:00,33.6,5.2,18.26,WNW,299,0.0,0.0,30,0.00,,,0.00,WUHU216WMR968SP,2013-02-06 21:00:00,
2013-02-06 16:05:00,33.1,3.3,18.26,NW,309,0.0,0.0,28,0.00,,,0.00,WUHU216WMR968SP,2013-02-06 21:05:00,
2013-02-06 16:10:00,32.5,2.8,18.26,West,279,0.0,0.0,28,0.00,,,0.00,WUHU216WMR968SP,2013-02-06 21:10:00,
2013-02-06 16:15:00,32.2,4.0,18.26,NW,324,0.0,0.0,30,0.00,,,0.00,WUHU216WMR968SP,2013-02-06 21:15:00,
2013-02-06 16:20:00,31.6,3.5,18.26,NW,323,0.0,0.0,30,0.00,,,0.00,WUHU216WMR968SP,2013-02-06 21:20:00,
2013-02-06 16:25:00,31.6,3.5,18.26,NW,305,0.0,0.0,30,0.00,,,0.00,WUHU216WMR968SP,2013-02-06 21:25:00,
2013-02-06 16:30:00,31.3,3.2,18.26,NW,323,0.0,0.0,30,0.00,,,0.00,WUHU216WMR968SP,2013-02-06 21:30:00,
2013-02-06 16:35:00,31.1,3.0,18.26,NW,319,0.0,0.0,30,0.00,,,0.00,WUHU216WMR968SP,2013-02-06 21:35:00,
2013-02-06 16:40:00,30.7,2.7,18.26,NW,324,0.0,0.0,30,0.00,,,0.00,WUHU216WMR968SP,2013-02-06 21:40:00,
2013-02-06 16:45:00,30.4,2.4,18.26,NNW,327,0.0,0.0,30,0.00,,,0.00,WUHU216WMR968SP,2013-02-06 21:45:00,
2013-02-06 16:50:00,30.0,2.8,18.26,NW,324,0.0,0.0,31,0.00,,,0.00,WUHU216WMR968SP,2013-02-06 21:50:00,
2013-02-06 16:55:00,29.5,2.3,18.26,NW,311,0.0,0.0,31,0.00,,,0.00,WUHU216WMR968SP,2013-02-06 21:55:00,
2013-02-06 17:00:00,29.3,2.8,18.26,WNW,289,0.0,0.0,32,0.00,,,0.00,WUHU216WMR968SP,2013-02-06 22:00:00,
2013-02-06 17:05:00,28.6,3.5,18.26,WNW,300,0.0,0.0,34,0.00,,,0.00,WUHU216WMR968SP,2013-02-06 22:05:00,
2013-02-06 17:10:00,28.2,4.4,18.26,NW,310,0.0,0.0,36,0.00,,,0.00,WUHU216WMR968SP,2013-02-06 22:10:00,
2013-02-06 17:15:00,27.7,5.2,18.26,WNW,302,0.0,0.0,38,0.00,,,0.00,WUHU216WMR968SP,2013-02-06 22:15:00,
2013-02-06 17:20:00,27.3,4.8,18.26,East,87,0.0,0.0,38,0.00,,,0.00,WUHU216WMR968SP,2013-02-06 22:20:00,
2013-02-06 17:25:00,27.1,4.6,18.26,WNW,294,0.0,0.0,38,0.00,,,0.00,WUHU216WMR968SP,2013-02-06 22:25:00,
2013-02-06 17:30:00,27.0,5.1,18.26,WNW,291,0.0,0.0,39,0.00,,,0.00,WUHU216WMR968SP,2013-02-06 22:30:00,
2013-02-06 17:35:00,26.8,4.9,18.26,NW,315,0.0,0.0,39,0.00,,,0.00,WUHU216WMR968SP,2013-02-06 22:35:00,
2013-02-06 17:40:00,26.6,4.7,18.26,WNW,297,0.0,0.0,39,0.00,,,0.00,WUHU216WMR968SP,2013-02-06 22:40:00,
2013-02-06 17:45:00,26.2,4.9,18.26,NW,314,0.0,0.0,40,0.00,,,0.00,WUHU216WMR968SP,2013-02-06 22:45:00,
2013-02-06 17:50:00,26.1,4.9,18.26,WNW,303,0.0,0.0,40,0.00,,,0.00,WUHU216WMR968SP,2013-02-06 22:50:00,
2013-02-06 17:55:00,25.9,4.1,18.26,NW,318,0.0,0.0,39,0.00,,,0.00,WUHU216WMR968SP,2013-02-06 22:55:00,
2013-02-06 18:00:00,26.1,4.3,18.26,NW,308,0.0,0.0,39,0.00,,,0.00,WUHU216WMR968SP,2013-02-06 23:00:00,
2013-02-06 18:05:00,25.7,3.4,18.26,WNW,287,0.0,0.0,38,0.00,,,0.00,WUHU216WMR968SP,2013-02-06 23:05:00,
2013-02-06 18:10:00,25.5,2.6,18.26,NW,317,0.0,0.0,37,0.00,,,0.00,WUHU216WMR968SP,2013-02-06 23:10:00,
2013-02-06 18:15:00,25.3,1.8,18.26,NW,308,0.0,0.0,36,0.00,,,0.00,WUHU216WMR968SP,2013-02-06 23:15:00,
2013-02-06 18:20:00,25.0,1.6,18.26,NNW,328,0.0,0.0,36,0.00,,,0.00,WUHU216WMR968SP,2013-02-06 23:20:00,
2013-02-06 18:25:00,25.2,1.1,18.26,WNW,302,0.0,0.0,35,0.00,,,0.00,WUHU216WMR968SP,2013-02-06 23:25:00,
2013-02-06 18:30:00,25.0,1.0,18.26,WNW,297,0.0,0.0,35,0.00,,,0.00,WUHU216WMR968SP,2013-02-06 23:30:00,
2013-02-06 18:35:00,24.6,0.6,18.26,WSW,240,0.0,0.0,35,0.00,,,0.00,WUHU216WMR968SP,2013-02-06 23:35:00,
2013-02-06 18:41:00,24.4,-0.2,18.26,NW,313,0.0,0.0,34,0.00,,,0.00,WUHU216WMR968SP,2013-02-06 23:41:00,
2013-02-06 18:46:00,24.3,-0.9,18.26,NW,316,0.0,0.0,33,0.00,,,0.00,WUHU216WMR968SP,2013-02-06 23:46:00,
2013-02-06 18:52:00,24.1,-1.1,18.26,NW,313,0.0,0.0,33,0.00,,,0.00,WUHU216WMR968SP,2013-02-06 23:52:00,
2013-02-06 18:57:00,24.1,-1.1,18.26,WNW,289,0.0,0.0,33,0.00,,,0.00,WUHU216WMR968SP,2013-02-06 23:57:00,
2013-02-06 19:02:00,23.7,-1.5,18.26,NW,317,0.0,0.0,33,0.00,,,0.00,WUHU216WMR968SP,2013-02-07 00:02:00,
2013-02-06 19:07:00,23.4,-1.7,18.26,NW,304,0.0,0.0,33,0.00,,,0.00,WUHU216WMR968SP,2013-02-07 00:07:00,
2013-02-06 19:12:00,23.4,-1.7,18.26,NW,320,0.0,0.0,33,0.00,,,0.00,WUHU216WMR968SP,2013-02-07 00:12:00,
2013-02-06 19:17:00,23.0,-2.1,18.26,West,271,0.0,0.0,33,0.00,,,0.00,WUHU216WMR968SP,2013-02-07 00:17:00,
2013-02-06 19:22:00,22.8,-2.2,18.26,SW,220,0.0,2.7,33,0.00,,,0.00,WUHU216WMR968SP,2013-02-07 00:22:00,
2013-02-06 19:27:00,23.0,-2.1,18.26,NW,322,0.0,2.7,33,0.00,,,0.00,WUHU216WMR968SP,2013-02-07 00:27:00,
2013-02-06 19:32:00,22.6,-2.4,18.26,WNW,292,0.0,0.0,33,0.00,,,0.00,WUHU216WMR968SP,2013-02-07 00:32:00,
2013-02-06 19:37:00,22.5,-2.5,18.26,NW,322,0.0,0.0,33,0.00,,,0.00,WUHU216WMR968SP,2013-02-07 00:37:00,
2013-02-06 19:42:00,22.1,-3.5,18.26,NW,312,0.0,0.0,32,0.00,,,0.00,WUHU216WMR968SP,2013-02-07 00:42:00,
2013-02-06 19:47:00,21.9,-3.7,18.26,NW,326,0.0,0.0,32,0.00,,,0.00,WUHU216WMR968SP,2013-02-07 00:47:00,
2013-02-06 19:52:00,21.9,-3.7,18.26,West,270,0.0,0.0,32,0.00,,,0.00,WUHU216WMR968SP,2013-02-07 00:52:00,
2013-02-06 19:57:00,21.6,-3.9,18.26,NW,326,0.0,0.0,32,0.00,,,0.00,WUHU216WMR968SP,2013-02-07 00:57:00,
2013-02-06 20:02:00,21.6,-3.9,18.26,NW,319,0.0,0.0,32,0.00,,,0.00,WUHU216WMR968SP,2013-02-07 01:02:00,
2013-02-06 20:07:00,21.2,-4.3,18.26,NW,319,0.0,0.0,32,0.00,,,0.00,WUHU216WMR968SP,2013-02-07 01:07:00,
2013-02-06 20:12:00,21.2,-4.3,18.26,WNW,301,0.0,0.0,32,0.00,,,0.00,WUHU216WMR968SP,2013-02-07 01:12:00,
2013-02-06 20:17:00,20.8,-6.0,18.26,NNW,337,0.0,0.0,30,0.00,,,0.00,WUHU216WMR968SP,2013-02-07 01:17:00,
2013-02-06 20:22:00,21.2,-5.6,18.26,WNW,288,0.0,0.0,30,0.00,,,0.00,WUHU216WMR968SP,2013-02-07 01:22:00,
2013-02-06 20:27:00,21.0,-5.8,18.26,West,273,0.0,0.0,30,0.00,,,0.00,WUHU216WMR968SP,2013-02-07 01:27:00,
2013-02-06 20:32:00,20.7,-8.2,18.26,NW,307,0.0,0.0,27,0.00,,,0.00,WUHU216WMR968SP,2013-02-07 01:32:00,
2013-02-06 20:37:00,20.5,-8.4,18.26,NW,318,0.0,0.0,27,0.00,,,0.00,WUHU216WMR968SP,2013-02-07 01:37:00,
2013-02-06 20:42:00,20.3,-8.5,18.26,WNW,299,0.0,2.7,27,0.00,,,0.00,WUHU216WMR968SP,2013-02-07 01:42:00,
2013-02-06 20:47:00,20.3,-8.5,18.26,NE,37,0.0,2.7,27,0.00,,,0.00,WUHU216WMR968SP,2013-02-07 01:47:00,
2013-02-06 20:52:00,19.9,-10.4,18.26,NW,309,0.0,0.0,25,0.00,,,0.00,WUHU216WMR968SP,2013-02-07 01:52:00,
2013-02-06 20:57:00,19.9,-10.4,18.26,East,101,0.0,3.6,25,0.00,,,0.00,WUHU216WMR968SP,2013-02-07 01:57:00,
2013-02-06 21:02:00,19.6,-10.7,18.26,WNW,282,0.0,3.6,25,0.00,,,0.00,WUHU216WMR968SP,2013-02-07 02:02:00,
2013-02-06 21:07:00,19.6,-10.7,18.26,NW,320,0.0,0.0,25,0.00,,,0.00,WUHU216WMR968SP,2013-02-07 02:07:00,
2013-02-06 21:12:00,19.4,-10.8,18.26,NNW,328,0.0,3.6,25,0.00,,,0.00,WUHU216WMR968SP,2013-02-07 02:12:00,
2013-02-06 21:17:00,19.2,-11.0,18.26,NW,308,0.0,3.6,25,0.00,,,0.00,WUHU216WMR968SP,2013-02-07 02:17:00,
2013-02-06 21:22:00,19.2,-11.0,18.26,NW,311,0.0,0.0,25,0.00,,,0.00,WUHU216WMR968SP,2013-02-07 02:22:00,
2013-02-06 21:27:00,19.0,-11.2,18.26,WNW,290,0.0,0.0,25,0.00,,,0.00,WUHU216WMR968SP,2013-02-07 02:27:00,
2013-02-06 21:32:00,18.9,-11.3,18.26,WNW,293,0.0,0.0,25,0.00,,,0.00,WUHU216WMR968SP,2013-02-07 02:32:00,
2013-02-06 21:37:00,18.7,-11.4,18.26,WNW,285,0.0,0.0,25,0.00,,,0.00,WUHU216WMR968SP,2013-02-07 02:37:00,
2013-02-06 21:42:00,18.5,-13.2,18.26,NW,311,0.0,0.0,23,0.00,,,0.00,WUHU216WMR968SP,2013-02-07 02:42:00,
2013-02-06 21:47:00,18.5,-13.2,18.26,West,279,0.0,2.2,23,0.00,,,0.00,WUHU216WMR968SP,2013-02-07 02:47:00,
2013-02-06 21:52:00,18.1,-13.6,18.26,WNW,302,0.0,2.2,23,0.00,,,0.00,WUHU216WMR968SP,2013-02-07 02:52:00,
2013-02-06 21:57:00,18.3,-13.4,18.26,WNW,291,0.0,0.0,23,0.00,,,0.00,WUHU216WMR968SP,2013-02-07 02:57:00,
2013-02-06 22:02:00,18.1,-13.6,18.26,West,268,0.0,0.0,23,0.00,,,0.00,WUHU216WMR968SP,2013-02-07 03:02:00,
2013-02-06 22:07:00,18.0,-13.7,18.26,WNW,301,0.0,0.0,23,0.00,,,0.00,WUHU216WMR968SP,2013-02-07 03:07:00,
2013-02-06 22:12:00,17.6,-14.0,18.26,NW,319,0.0,5.4,23,0.00,,,0.00,WUHU216WMR968SP,2013-02-07 03:12:00,
2013-02-06 22:17:00,17.4,-14.2,18.26,NW,324,0.0,9.6,23,0.00,,,0.00,WUHU216WMR968SP,2013-02-07 03:17:00,
2013-02-06 22:22:00,17.4,-14.2,18.26,WNW,288,0.0,9.6,23,0.00,,,0.00,WUHU216WMR968SP,2013-02-07 03:22:00,
2013-02-06 22:27:00,17.4,-14.2,18.26,West,278,0.0,5.8,23,0.00,,,0.00,WUHU216WMR968SP,2013-02-07 03:27:00,
2013-02-06 22:32:00,17.2,-14.3,18.26,WNW,300,0.0,5.8,23,0.00,,,0.00,WUHU216WMR968SP,2013-02-07 03:32:00,
2013-02-06 22:37:00,17.1,-14.4,18.26,WNW,300,0.0,0.0,23,0.00,,,0.00,WUHU216WMR968SP,2013-02-07 03:37:00,
2013-02-06 22:42:00,16.9,-14.6,18.26,WNW,292,0.0,0.0,23,0.00,,,0.00,WUHU216WMR968SP,2013-02-07 03:42:00,
2013-02-06 22:48:00,16.9,-14.6,18.26,WNW,294,0.0,0.0,23,0.00,,,0.00,WUHU216WMR968SP,2013-02-07 03:48:00,
2013-02-06 22:53:00,16.9,-14.6,18.26,West,267,0.0,0.0,23,0.00,,,0.00,WUHU216WMR968SP,2013-02-07 03:53:00,
2013-02-06 22:58:00,16.5,-14.9,18.26,NW,304,0.0,0.0,23,0.00,,,0.00,WUHU216WMR968SP,2013-02-07 03:58:00,
2013-02-06 23:03:00,16.5,-14.9,18.26,WNW,282,0.0,0.0,23,0.00,,,0.00,WUHU216WMR968SP,2013-02-07 04:03:00,
2013-02-06 23:08:00,16.2,-15.2,18.26,NW,308,0.0,0.0,23,0.00,,,0.00,WUHU216WMR968SP,2013-02-07 04:08:00,
2013-02-06 23:13:00,16.2,-15.2,18.26,WNW,298,0.0,0.0,23,0.00,,,0.00,WUHU216WMR968SP,2013-02-07 04:13:00,
2013-02-06 23:18:00,16.0,-15.4,18.26,NNW,332,0.0,8.7,23,0.00,,,0.00,WUHU216WMR968SP,2013-02-07 04:18:00,
2013-02-06 23:23:00,16.0,-15.4,18.26,NNW,336,0.0,8.7,23,0.00,,,0.00,WUHU216WMR968SP,2013-02-07 04:23:00,
2013-02-06 23:28:00,16.0,-15.4,18.26,WNW,287,0.0,6.3,23,0.00,,,0.00,WUHU216WMR968SP,2013-02-07 04:28:00,
2013-02-06 23:33:00,16.0,-15.4,18.26,NNW,328,0.0,0.0,23,0.00,,,0.00,WUHU216WMR968SP,2013-02-07 04:33:00,
2013-02-06 23:38:00,15.6,-14.9,18.26,WNW,284,0.0,0.0,24,0.00,,,0.00,WUHU216WMR968SP,2013-02-07 04:38:00,
2013-02-06 23:43:00,15.6,-14.9,18.26,WNW,292,0.0,0.0,24,0.00,,,0.00,WUHU216WMR968SP,2013-02-07 04:43:00,
2013-02-06 23:48:00,15.6,-14.9,18.26,WNW,287,0.0,2.2,24,0.00,,,0.00,WUHU216WMR968SP,2013-02-07 04:48:00,
2013-02-06 23:53:00,15.4,-15.1,18.26,NW,321,0.0,2.2,24,0.00,,,0.00,WUHU216WMR968SP,2013-02-07 04:53:00,
2013-02-06 23:58:00,15.8,-14.7,18.26,WNW,286,0.0,0.0,24,0.00,,,0.00,WUHU216WMR968SP,2013-02-07 04:58:00,